Regional Weather Roundup
Issued by NWS

Home | Current Version | Previous Version | Graphics & Text | Print | Product List | Glossary Off
Versions: 1 2 3 4 5 6 7 8 9 10 11 12 13 14 15 16 17 18 19 20 21 22 23 24 25 26 27 28 29 30 31 32 33 34 35 36 37 38 39 40 41 42 43 44 45 46 47 48 49 50

000
ASUS43 KFSD 060602
RWRSD

WEATHER ROUNDUP FOR SOUTH DAKOTA
NATIONAL WEATHER SERVICE SIOUX FALLS SD
100 AM CDT FRI MAY 06 2016

NOTE: "FAIR" INDICATES FEW OR NO CLOUDS BELOW 12,000 FEET WITH NO
SIGNIFICANT WEATHER AND/OR OBSTRUCTIONS TO VISIBILITY.


SDZ001>005-009-010-012>017-060700-
NORTHWEST AND NORTH CENTRAL SOUTH DAKOTA

CITY           SKY/WX    TMP DP  RH WIND       PRES   REMARKS
BUFFALO          N/A     67  44  43 SW6       29.79F
FAITH            N/A     72  37  28 SE7       29.83F
MOBRIDGE       CLOUDY    61  50  67 SE8       29.78F
$$

SDZ012>016-024>037-041>051-057-063-072>074-060700-
SOUTHWEST AND SOUTH CENTRAL SOUTH DAKOTA

CITY           SKY/WX    TMP DP  RH WIND       PRES   REMARKS
RAPID CTY ARPT CLOUDY    52  45  77 NW5       29.88S
PIERRE         CLOUDY    63  49  60 S8        29.79S
CUSTER         CLOUDY    51  33  50 NW5       30.03S
ELLSWORTH AFB  CLEAR     61  45  55 W8        29.87F
PHILIP         CLOUDY    53  49  86 NW6       29.83R
PINE RIDGE     CLOUDY    67  45  45 S16       29.92R
WINNER         LGT RAIN  71  47  42 S24G30    29.86S
$$

SDZ004>011-016>023-039-040-060700-
NORTHEAST SOUTH DAKOTA

CITY           SKY/WX    TMP DP  RH WIND       PRES   REMARKS
ABERDEEN       CLEAR     58  45  62 S9        29.82F
WATERTOWN      CLEAR     59  44  57 SE12      29.89S
BROOKINGS      CLEAR     59  44  57 S9        29.91S
SISSETON         N/A     72  38  29 SW17      29.82S
$$

SDZ017-020-022-023-036>040-048>070-060700-
SOUTHEAST SOUTH DAKOTA

CITY           SKY/WX    TMP DP  RH WIND       PRES   REMARKS
SIOUX FALLS    CLEAR     62  44  51 SW12      29.93S
HURON          CLEAR     63  46  54 S9        29.86S
MITCHELL       CLEAR     61  49  64 S9        29.89S
YANKTON        CLEAR     64  39  39 S8        29.93R
$$

ABBREVIATIONS USED IN REMARKS
   TC - TEMPERATURE IN CELSIUS
  WCI - WIND CHILL INDEX
   HX - HEAT INDEX
  VSB - VISIBILITY





USA.gov is the U.S. government's official web portal to all federal, state and local government web resources and services.